Volver al catálogo

STARLINK-31550

ActivoComunicacionesVLEO
NORAD 59338·PAYLOAD·🇺🇸 United States

Lanzado Mar 25, 2024 desde Cape Canaveral Space Force Station

Loading…

Próximos Pases (próximas 24 horas)

TLE

ActualizadoSource: CelesTrak SupGP

Época: Sep 14, 2026, 21:11 UTC

1 59338C 24057U   26257.88312500  .00015687  00000+0  56801-3 0  2571
2 59338  43.0012 198.9675 0001648 259.6943 314.7784 15.27579721    13

Sigue STARLINK-31550 en tiempo real con AllMySat

Download on the App Store